Temp
49 51 49 49 50 51 53 53 55 55 56 56 57 57 58 59 59 60 60 60 61 62 62 63 64 65 65
44 43 45 47 48 47 49 52 51 53 54 55 54 55 56 57 57 58 58 58 59 60 61 61 62 63 64
39 44 44 46 45 46 46 47 50 50 51 52 53 54 54 55 56 57 57 57 57 57 58 59 60 60 61
38 39 41 43 43 39 39 43 44 48 49 50 51 52 53 54 55 54 54 55 56 57 57 56 56 58 59
37 37 37 38 37 40 37 39 40 43 43 46 49 50 51 52 52 52 52 53 54 55 56 56 55 56 57
34 34 36 38 39 38 37 36 33 46 42 44 47 45 49 50 51 51 51 53 53 54 54 54 55 55 56
33 34 34 37 37 34 34 35 34 38 41 38 43 41 47 49 50 50 50 51 52 52 53 53 53 54 54
38 38 39 39 39 37 35 36 37 39 40 33 40 39 43 46 49 49 50 51 50 51 51 52 52 52 54
40 40 41 41 40 37 33 32 33 35 40 35 37 37 40 43 45 47 47 48 48 49 50 50 51 50 50
36 37 37 38 39 37 33 30 31 30 37 33 34 34 34 35 35 37 39 44 46 48 50 49 47 44 44
32 32 34 35 35 36 34 32 30 30 36 34 32 32 33 34 35 36 35 41 45 47 48 47 46 44 40
28 29 31 31 32 33 33 34 33 32 35 31 29 31 31 32 32 32 32 36 43 41 41 43 43 43 42
27 28 30 30 31 31 33 33 32 32 31 30 28 29 30 31 30 29 30 30 36 37 37 36 36 37 37
26 28 30 29 29 31 31 31 30 30 30 30 29 30 31 33 32 31 29 29 32 32 32 35 36 37 37
26 27 27 28 28 31 30 30 28 26 26 28 29 30 30 31 28 29 30 29 31 31 30 28 30 35 35
26 26 25 26 28 30 30 27 25 25 24 24 24 26 28 28 30 26 27 27 29 30 31 28 27 30 36
25 25 25 27 28 28 27 26 25 24 23 22 22 23 24 21 25 29 25 26 27 26 28 29 28 28 33
MSLP
1001.33 1000.13 999.63 999.22 998.72 998.25 997.47 996.57 995.19 994.29 993.62 992.85 992.14 991.46 991.01 990.56 990.32 989.93 989.78 989.74 989.94 989.71 989.53 989.82 990.24 990.57 990.84
1000.79 1000.26 999.54 999.01 998.18 997.42 996.62 995.69 994.90 993.72 992.87 992.06 991.55 990.89 990.23 989.49 989.17 988.79 988.52 988.46 988.51 988.56 988.62 988.83 988.55 989.24 989.62
1000.79 1000.05 998.94 998.24 997.20 996.48 995.78 994.90 994.23 993.36 992.46 991.63 990.91 989.98 989.48 988.88 988.29 987.83 987.60 987.50 987.57 987.52 987.63 987.57 987.89 988.14 988.42
1000.32 999.16 998.25 997.35 996.85 995.88 994.66 994.37 993.24 992.79 991.91 991.10 990.24 989.34 988.35 987.77 987.25 986.85 986.70 986.35 986.14 986.45 986.49 986.52 986.35 986.98 986.98
999.61 998.61 997.54 996.59 995.87 995.08 994.09 993.05 992.15 991.74 990.58 989.74 989.08 988.23 987.42 987.00 986.46 986.02 985.51 985.50 985.64 985.65 985.46 985.46 985.70 985.79 985.61
999.17 998.19 996.97 996.06 994.94 994.13 993.20 992.31 991.03 990.63 989.78 988.42 988.23 987.22 986.71 986.10 985.54 985.43 985.31 984.78 984.67 984.56 984.56 984.48 984.48 984.46 984.51
998.59 997.68 996.48 995.33 994.50 993.39 992.42 991.53 990.42 989.68 989.22 987.69 987.43 986.43 985.78 985.04 984.29 984.07 984.17 983.87 983.65 983.73 983.60 983.45 983.54 983.56 983.47
997.84 996.84 995.65 994.38 993.60 992.49 991.29 990.39 989.57 988.42 988.31 986.92 986.43 985.49 984.68 983.91 983.27 982.85 982.83 982.70 982.69 982.71 982.72 982.72 982.56 982.52 982.17
996.58 995.50 994.42 993.27 992.67 991.62 990.58 989.83 988.20 987.08 987.22 986.71 985.24 984.71 983.70 982.69 982.28 982.19 982.19 982.02 981.90 981.83 981.65 981.52 981.43 981.81 982.43
994.96 994.24 993.66 992.61 991.65 991.00 990.18 988.95 987.98 986.42 986.31 986.06 985.17 985.18 983.72 982.44 982.29 982.27 981.96 981.23 980.70 980.49 980.54 980.77 981.34 982.47 983.41
994.81 993.72 992.64 991.57 990.66 989.93 989.46 988.30 987.33 986.17 985.75 985.59 984.91 984.68 984.08 982.89 982.49 982.22 981.86 980.40 979.65 979.76 980.55 981.22 981.79 982.33 984.05
994.43 993.03 991.81 990.86 990.02 989.18 988.36 987.42 986.73 985.81 985.15 985.45 984.90 984.34 983.62 982.82 982.45 982.31 981.81 980.57 980.04 980.84 981.83 982.95 983.58 983.99 984.70
993.78 992.51 991.48 990.36 989.31 988.14 986.94 986.12 985.37 984.85 984.81 984.91 984.43 983.59 982.96 982.24 982.22 982.38 982.13 981.88 981.39 981.80 983.01 983.98 984.77 985.48 986.29
993.36 992.02 990.80 989.62 988.43 987.30 986.01 985.21 984.66 984.36 984.58 984.36 983.68 982.75 981.99 981.79 981.89 982.19 982.44 982.42 982.69 983.18 984.02 985.04 985.92 986.64 987.36
992.80 991.40 990.08 988.90 987.55 986.33 985.52 984.88 984.52 984.46 984.37 984.13 983.65 983.01 982.35 981.98 982.31 982.54 982.83 983.13 983.62 984.26 984.96 986.26 987.22 987.61 988.39
992.27 991.00 989.62 988.31 986.98 985.98 985.40 985.14 984.96 984.91 984.74 984.49 984.11 983.46 983.07 983.11 983.30 983.45 983.78 984.20 984.78 985.23 985.93 986.96 988.39 989.04 989.37
991.92 990.53 989.25 987.93 986.92 986.14 985.80 985.62 985.47 985.47 985.35 985.09 984.64 984.24 983.92 984.12 984.71 984.70 984.67 985.28 985.71 986.43 987.22 987.90 988.76 989.86 990.09
Wind_Speed
14 17 18 18 17 17 16 19 15 24 28 27 28 28 28 27 27 27 30 30 31 29 28 28 29 32 32
18 13 18 18 17 19 15 14 17 23 28 25 29 29 26 24 24 24 25 27 27 28 28 28 30 30 33
17 14 15 15 16 16 16 16 14 22 26 27 29 27 28 27 26 23 22 23 24 25 25 26 26 28 30
14 14 14 15 13 14 15 13 14 14 21 25 28 27 28 26 24 23 22 20 21 22 23 24 25 28 28
15 14 14 14 16 14 15 14 15 14 14 13 13 13 12 19 20 20 18 19 20 22 21 21 22 23 28
16 16 20 18 16 15 15 15 16 12 15 13 12 13 14 13 22 23 25 24 21 19 21 22 24 24 26
20 17 19 19 19 19 17 17 15 12 16 17 13 14 14 15 27 27 24 24 21 22 23 23 24 24 26
17 19 20 20 21 18 17 17 16 15 13 13 12 14 14 13 26 27 24 21 21 22 25 25 21 23 24
30 33 32 33 28 14 12 13 15 15 9 11 11 14 14 13 11 20 20 22 23 24 24 26 15 18 14
18 19 21 20 29 16 13 13 14 15 4 6 10 9 7 2 2 4 7 18 24 25 20 25 25 12 12
16 14 15 14 13 12 14 10 13 15 12 9 6 7 6 6 2 3 5 10 4 11 25 26 27 23 12
14 14 14 13 13 13 17 14 12 16 11 6 6 8 8 7 4 1 3 6 9 10 11 18 22 23 23
14 14 13 15 17 15 16 14 13 10 4 7 9 10 10 8 3 2 1 5 6 11 10 9 9 9 13
13 14 14 13 13 13 11 10 8 4 2 6 8 6 3 3 4 5 1 4 5 8 9 8 8 7 8
14 14 14 13 13 9 9 7 4 3 3 4 7 8 7 4 5 5 7 7 7 9 12 10 7 7 8
14 14 13 13 12 9 6 3 3 3 4 4 5 4 3 11 16 7 7 7 6 10 10 10 7 6 7
14 13 13 11 12 6 4 3 3 5 5 5 4 2 5 5 3 19 5 5 6 8 7 7 6 5 6
Wind_Direction
289 301 301 306 307 301 299 291 285 289 293 293 292 291 289 284 273 266 260 257 255 253 253 251 246 237 231
297 301 302 305 297 294 291 293 294 289 291 296 303 294 293 290 285 271 266 258 256 255 252 249 243 244 237
299 297 296 299 297 296 297 292 287 290 294 295 294 295 295 289 286 281 271 255 247 249 250 252 248 249 254
288 292 294 297 292 298 294 290 291 292 286 287 288 290 290 291 286 278 269 265 258 255 251 246 248 248 244
294 293 292 298 294 292 282 284 279 276 275 273 283 283 277 297 287 291 271 263 260 259 258 251 240 247 250
299 296 295 293 290 287 284 286 286 276 280 273 285 272 274 274 278 284 287 280 265 261 260 258 255 250 248
295 292 293 292 294 292 286 283 276 276 279 283 281 272 268 266 268 269 269 268 270 268 267 261 253 248 246
294 292 287 286 286 287 289 293 286 276 279 280 282 269 270 258 260 265 264 264 266 266 266 264 252 263 246
298 298 300 299 296 293 287 287 285 284 281 276 279 276 267 254 246 258 267 267 264 257 258 265 215 133 117
308 305 301 292 296 288 283 274 286 285 282 295 298 304 298 311 288 280 278 271 262 252 241 143 127 119 120
305 301 298 294 297 289 283 262 280 280 284 283 284 290 276 291 261 298 296 269 210 145 135 134 135 130 117
300 298 303 302 299 294 290 274 273 271 281 270 265 260 260 249 256 279 321 333 115 114 108 112 111 115 119
303 301 301 298 298 292 288 279 274 271 262 281 266 263 247 240 189 199 123 5 88 110 108 109 114 116 123
301 300 300 300 297 295 291 297 291 267 253 310 319 283 246 211 180 149 138 120 90 91 95 104 107 108 108
305 306 303 302 299 295 295 301 297 336 338 335 345 15 51 62 87 99 112 89 98 103 98 93 62 99 101
308 306 305 305 303 312 318 354 10 4 357 350 343 337 48 54 50 79 72 85 80 92 99 101 81 67 124
309 310 308 303 321 334 2 6 13 14 7 351 358 355 63 72 30 30 76 78 92 73 81 94 110 119 121